| time (UTC) | temp F | wind direction | speed knots | gust knots | rain 1hr in | rain 24hr in | rain mn in | humidity % | barometer mb |
| 20260507060002 | 58 | 270 | 0.0 | 0.0 | 0.00 | 0.00 | 0.00 | 10 | 1021.2 |
| 20260507053003 | 57 | 270 | 0.0 | 0.0 | 0.00 | 0.00 | 0.00 | 10 | 1021.1 |
| 20260507050003 | 55 | 270 | 0.0 | 0.0 | 0.00 | 0.00 | 0.00 | 10 | 1020.9 |
| 20260507043005 | 53 | 315 | 0.0 | 0.0 | 0.00 | 0.00 | 0.00 | 10 | 1020.4 |
| 20260507040003 | 51 | 270 | 0.0 | 0.0 | 0.00 | 0.00 | 0.00 | 10 | 1020.0 |
| 20260507030005 | 48 | 270 | 0.0 | 0.0 | 0.00 | 0.00 | 0.00 | 10 | 1019.8 |
| 20260507023003 | 48 | 315 | 0.0 | 0.0 | 0.00 | 0.00 | 0.00 | 10 | 1019.4 |
| 20260507020004 | 48 | 270 | 0.0 | 0.0 | 0.00 | 0.00 | 0.00 | 10 | 1019.1 |
| 20260507013002 | 48 | 270 | 0.0 | 0.0 | 0.00 | 0.00 | 0.00 | 10 | 1019.0 |
| 20260507010003 | 48 | 270 | 0.0 | 0.0 | 0.00 | 0.00 | 0.00 | 10 | 1019.0 |
| 20260507003004 | 48 | 270 | 0.0 | 0.0 | 0.00 | 0.00 | 0.00 | 10 | 1019.0 |
| 20260507000005 | 48 | 270 | 0.0 | 0.0 | 0.00 | 0.00 | 0.00 | 10 | 1018.9 |
| 20260506233003 | 49 | 270 | 0.0 | 0.0 | 0.00 | 0.00 | 0.00 | 10 | 1019.0 |
| 20260506230002 | 48 | 270 | 0.0 | 0.0 | 0.00 | 0.00 | 0.00 | 10 | 1019.1 |
| 20260506220003 | 49 | 315 | 0.0 | 0.0 | 0.00 | 0.00 | 0.00 | 10 | 1019.3 |
| 20260506213003 | 49 | 270 | 0.0 | 0.0 | 0.00 | 0.00 | 0.00 | 10 | 1019.4 |
| 20260506210005 | 49 | 270 | 0.0 | 0.0 | 0.00 | 0.00 | 0.00 | 10 | 1019.4 |
| 20260506203004 | 50 | 270 | 0.0 | 0.0 | 0.00 | 0.00 | 0.00 | 10 | 1019.3 |
| 20260506200003 | 50 | 270 | 0.0 | 0.0 | 0.00 | 0.00 | 0.00 | 10 | 1019.4 |
| 20260506193004 | 51 | 270 | 0.0 | 0.0 | 0.00 | 0.00 | 0.00 | 10 | 1019.6 |
| 20260506190005 | 51 | 315 | 0.0 | 0.0 | 0.00 | 0.00 | 0.00 | 10 | 1019.7 |
| 20260506183005 | 52 | 270 | 0.0 | 0.0 | 0.00 | 0.00 | 0.00 | 10 | 1019.8 |
| 20260506180005 | 53 | 270 | 0.0 | 0.0 | 0.00 | 0.00 | 0.00 | 10 | 1019.7 |
| 20260506173003 | 54 | 270 | 0.0 | 0.0 | 0.00 | 0.00 | 0.00 | 10 | 1019.5 |
| 20260506170004 | 56 | 270 | 0.0 | 0.0 | 0.00 | 0.00 | 0.00 | 10 | 1019.4 |
| 20260506163002 | 57 | 270 | 0.0 | 0.0 | 0.00 | 0.00 | 0.00 | 10 | 1019.4 |
| 20260506153004 | 58 | 315 | 0.0 | 0.0 | 0.00 | 0.00 | 0.00 | 10 | 1019.3 |
| 20260506150003 | 59 | 315 | 0.0 | 0.0 | 0.00 | 0.00 | 0.00 | 10 | 1019.5 |
| 20260506140002 | 60 | 270 | 0.0 | 0.0 | 0.00 | 0.00 | 0.00 | 10 | 1019.7 |
| 20260506133005 | 59 | 270 | 0.0 | 0.0 | 0.00 | 0.00 | 0.00 | 10 | 1019.7 |
| 20260506130002 | 61 | 270 | 0.0 | 0.0 | 0.00 | 0.00 | 0.00 | 10 | 1019.7 |
| 20260506123004 | 61 | 315 | 0.0 | 0.0 | 0.00 | 0.00 | 0.00 | 10 | 1019.8 |
| 20260506120004 | 74 | 270 | 0.0 | 0.0 | 0.00 | 0.00 | 0.00 | 93 | 1019.8 |
| 20260506113004 | 65 | 270 | 0.0 | 0.0 | 0.00 | 0.00 | 0.00 | 10 | 1020.0 |
| 20260506110003 | 62 | 270 | 0.0 | 0.0 | 0.00 | 0.00 | 0.00 | 10 | 1020.2 |
| 20260506103003 | 62 | 270 | 0.0 | 0.0 | 0.00 | 0.00 | 0.00 | 10 | 1020.2 |
| 20260506100004 | 60 | 270 | 0.0 | 0.0 | 0.00 | 0.00 | 0.00 | 10 | 1020.2 |
| 20260506093005 | 61 | 270 | 0.0 | 0.0 | 0.00 | 0.00 | 0.00 | 10 | 1020.1 |
| 20260506090005 | 61 | 270 | 0.0 | 0.0 | 0.00 | 0.00 | 0.00 | 10 | 1020.2 |
| 20260506083006 | 60 | 315 | 0.0 | 0.0 | 0.00 | 0.00 | 0.00 | 10 | 1020.2 |
| 20260506073006 | 58 | 315 | 0.0 | 0.0 | 0.00 | 0.00 | 0.00 | 10 | 1020.0 |